Date,TemperatureHighF,TemperatureAvgF,TemperatureLowF,DewpointHighF,DewpointAvgF,DewpointLowF,HumidityHigh,HumidityAvg,HumidityLow,PressureMaxIn,PressureMinIn,WindSpeedMaxMPH,WindSpeedAvgMPH,GustSpeedMaxMPH,PrecipitationSumIn
2013-8-1,74,68,64,64,61,59,88,76,61,30.12,30.01,5,1,12,0.00
2013-8-2,74,68,63,64,62,60,89,78,65,30.07,30.01,4,1,8,0.00
2013-8-3,74,67,64,65,62,60,87,80,67,30.10,30.04,3,1,8,0.00
2013-8-4,74,67,60,64,62,58,90,80,65,30.12,30.03,4,1,12,0.00
2013-8-5,71,64,57,64,61,55,97,86,70,30.10,30.04,4,1,10,0.00
2013-8-6,72,66,62,64,62,59,89,81,67,30.14,30.06,4,1,11,0.00
2013-8-7,72,66,60,64,61,57,93,82,67,30.18,30.08,4,1,11,0.00
2013-8-8,73,64,55,64,60,54,98,85,68,30.11,30.01,5,1,10,0.00
2013-8-9,73,66,60,64,61,59,96,83,66,30.07,30.01,4,1,9,0.00
2013-8-10,71,66,62,62,60,59,89,79,66,30.14,30.06,4,1,10,0.00
2013-8-11,71,66,62,64,62,59,91,82,68,30.09,30.01,4,1,9,0.00
2013-8-12,73,66,63,64,62,61,94,84,67,30.07,30.00,4,1,9,0.00
2013-8-13,73,66,63,66,63,62,97,88,71,30.07,29.99,4,1,9,0.00
2013-8-14,71,66,64,66,63,62,97,91,78,30.03,29.95,2,1,8,0.00
2013-8-15,72,67,64,67,64,63,99,90,76,30.04,29.97,3,0,7,0.00
2013-8-16,75,67,60,69,65,59,97,89,73,30.06,30.00,4,1,10,0.00
2013-8-17,73,67,62,66,64,62,99,89,74,30.05,29.92,4,1,11,0.00
2013-8-18,71,67,64,66,64,63,98,89,76,30.00,29.92,4,1,8,0.00
2013-8-19,74,68,66,66,64,63,94,87,70,30.05,29.96,3,1,9,0.00
2013-8-20,73,68,64,66,64,60,96,85,72,30.03,29.93,6,2,13,0.00
2013-8-21,75,68,59,67,62,57,95,80,65,30.01,29.93,8,2,18,0.00
2013-8-22,78,69,60,66,62,57,91,74,53,30.01,29.90,7,2,16,0.00
2013-8-23,75,68,59,66,62,56,90,79,61,29.97,29.84,5,2,16,0.00
2013-8-24,71,64,58,67,62,57,100,93,76,29.98,29.87,5,1,9,0.00
2013-8-25,70,64,59,66,62,59,100,91,75,30.01,29.93,4,1,9,0.00
2013-8-26,78,70,63,68,63,58,85,74,60,30.01,29.90,4,0,9,0.00
2013-8-27,78,71,66,69,65,63,92,79,59,29.95,29.87,5,1,10,0.00
2013-8-28,79,71,65,68,64,60,89,75,62,29.99,29.86,4,1,8,0.00
2013-8-29,80,72,65,70,65,60,89,74,62,30.02,29.97,3,1,8,0.00
2013-8-30,88,78,70,72,68,64,79,67,50,30.08,29.98,2,0,7,0.00
2013-8-31,85,77,73,73,69,66,84,72,50,30.07,30.00,4,0,8,0.00